Weather History for KLAS - January, 2014

Change the Weather History Date:

Saturday, January 25, 2014

  Actual Average Record
Temperature  
Mean Temperature 58 °F 50 °F  
Max Temperature 67 °F 59 °F 75 °F (1953)
Min Temperature 48 °F 40 °F 8 °F (1937)
Degree Days  
Heating Degree Days 7 16  
Month to date heating degree days 306 415  
Since 1 July heating degree days 1109 1262  
Cooling Degree Days 0 0  
Month to date cooling degree days 0 0  
Year to date cooling degree days 0 0  
Growing Degree Days 7 (Base 50)    
Moisture  
Dew Point 12 °F    
Average Humidity 19    
Maximum Humidity 29    
Minimum Humidity 9    
Precipitation  
Precipitation 0.00 in 0.01 in 0.65 in (1995)
Month to date precipitation 0.00 0.43  
Year to date precipitation 0.00 0.43  
Snow  
Snow 0.00 in 0.00 in 4.70 in (1949)
Month to date snowfall 0.0 0.0  
Since 1 July snowfall 0.0 0.2  
Snow Depth 0.00 in    
Sea Level Pressure  
Sea Level Pressure 30.18 in    
Wind  
Wind Speed 5 mph (SSW)    
Max Wind Speed 10 mph    
Max Gust Speed 12 mph    
Visibility 10 miles    
Events      
T = Trace of Precipitation, MM = Missing Value Source: NWS Daily Summary

Daily Weather History Graph

Daily Weather History Graph

Search for Another Location

Airport or City:

Trip Planner

Search our weather history database for the weather conditions in past years. The results will help you decide how hot, cold, wet, or windy it might be!

Date:

Astronomy

Jan. 25, 2014 Rise Set
Actual Time 6:46 AM PST 5:00 PM PST
Civil Twilight 6:18 AM PST 5:27 PM PST
Nautical Twilight 5:47 AM PST 5:58 PM PST
Astronomical Twilight 5:17 AM PST 6:29 PM PST
Moon 1:23 AM PST (1/25) 12:03 PM PST (1/25)
Length of Visible Light 11h 08m
Length of Day
10h 14m
Waning Crescent, 33% of the Moon is Illuminated
Jan 25
Waning Crescent
Jan 30
New
Feb 6
First Quarter
Feb 14
Full
Feb 22
Last Quarter

Hourly Weather History & Observations

Time (PST) Temp. Dew Point Humidity Pressure Visibility Wind Dir Wind Speed Gust Speed Precip Events Conditions
12:56 AM 53.1 °F 19.0 °F 26% 30.28 in 10.0 mi SSW 5.8 mph - N/A   Overcast
1:56 AM 53.1 °F 19.9 °F 27% 30.27 in 10.0 mi South 6.9 mph - N/A   Overcast
2:56 AM 52.0 °F 19.9 °F 28% 30.26 in 10.0 mi SW 8.1 mph - N/A   Overcast
3:56 AM 51.1 °F 19.9 °F 29% 30.25 in 10.0 mi South 6.9 mph - N/A   Overcast
4:56 AM 51.1 °F 18.0 °F 27% 30.24 in 10.0 mi South 9.2 mph - N/A   Mostly Cloudy
5:56 AM 48.9 °F 17.1 °F 28% 30.25 in 10.0 mi SSW 8.1 mph - N/A   Mostly Cloudy
6:56 AM 48.0 °F 17.1 °F 29% 30.26 in 10.0 mi South 5.8 mph - N/A   Mostly Cloudy
7:56 AM 48.9 °F 18.0 °F 29% 30.26 in 10.0 mi SW 4.6 mph - N/A   Mostly Cloudy
8:56 AM 55.9 °F 10.0 °F 16% 30.27 in 10.0 mi Calm Calm - N/A   Scattered Clouds
9:56 AM 57.9 °F 8.1 °F 14% 30.26 in 10.0 mi Calm Calm - N/A   Scattered Clouds
10:56 AM 61.0 °F 7.0 °F 12% 30.24 in 10.0 mi Calm Calm - N/A   Scattered Clouds
11:56 AM 61.0 °F 8.1 °F 12% 30.21 in 10.0 mi Calm Calm - N/A   Scattered Clouds
12:56 PM 63.0 °F 7.0 °F 11% 30.17 in 10.0 mi Calm Calm - N/A   Scattered Clouds
1:56 PM 64.9 °F 6.1 °F 10% 30.14 in 10.0 mi Calm Calm - N/A   Scattered Clouds
2:56 PM 64.9 °F 6.1 °F 10% 30.13 in 10.0 mi Calm Calm - N/A   Partly Cloudy
3:56 PM 66.0 °F 6.1 °F 9% 30.12 in 10.0 mi SSE 4.6 mph - N/A   Clear
4:56 PM 63.0 °F 8.1 °F 11% 30.12 in 10.0 mi South 6.9 mph - N/A   Clear
5:56 PM 61.0 °F 9.0 °F 13% 30.11 in 10.0 mi South 5.8 mph - N/A   Clear
6:56 PM 57.9 °F 9.0 °F 14% 30.11 in 10.0 mi SW 10.4 mph - N/A   Clear
7:56 PM 55.9 °F 10.0 °F 16% 30.10 in 10.0 mi SSW 8.1 mph - N/A   Clear
8:56 PM 52.0 °F 10.9 °F 19% 30.10 in 10.0 mi SSW 9.2 mph - N/A   Clear
9:56 PM 51.1 °F 12.9 °F 22% 30.10 in 10.0 mi SSW 5.8 mph - N/A   Clear
10:56 PM 50.0 °F 12.9 °F 23% 30.09 in 10.0 mi SSW 5.8 mph - N/A   Clear
11:56 PM 48.0 °F 14.0 °F 26% 30.09 in 10.0 mi SSW 6.9 mph - N/A   Clear